Location: Grantsboro
(35.1404°N, 76.8424°W)
Time: 03:11:00
(UTC+00:00)

Daily predictions for brighter satellites

Satellite Brightness Start Highest point End
(mag) Time Altitude Azimuth Time Altitude Azimuth Time Altitude Azimuth
CZ-4C R/B 3.0 00:00:07 10° NNW 00:07:38 68° ENE 00:16:00 10° SE
Meteor 2-10 Rocket 4.3 00:04:18 10° N 00:07:43 34° NNE 00:07:43 34° NNE
Cosmos 1959 Rocket 4.3 00:04:33 10° S 00:10:43 73° E 00:16:52 10° N
CSL-04 Rocket 4.1 00:06:44 10° S 00:12:06 65° WSW 00:17:36 10° NNW
Cosmos 2219 3.7 00:07:37 10° SW 00:13:07 59° WNW 00:17:28 17° N
Cosmos 1269 Rocket 3.9 00:08:54 10° NNW 00:14:10 70° ENE 00:17:03 27° SSE
Cosmos 1953 Rocket 3.5 00:10:52 10° S 00:15:20 89° E 00:16:24 53° N
SL-16 R/B 4.4 00:11:22 10° N 00:11:32 11° N 00:11:32 11° N
Cosmos 2366 rocket 3.8 00:11:32 10° S 00:17:40 80° E 00:23:54 10° N
Cosmos 2082 3.7 00:13:16 10° S 00:18:33 54° ESE 00:18:33 54° ESE
SL-8 R/B 3.6 00:14:14 10° SW 00:19:00 70° SE 00:19:01 70° SE
ASTRO E2 4.4 00:20:51 10° WSW 00:24:08 25° SSW 00:24:25 24° S
ISS -1.7 00:20:58 10° SW 00:22:23 23° SSW 00:22:23 23° SSW
Cosmos 2297 Rocket 2.7 00:27:27 10° SW 00:32:59 58° WNW 00:35:30 32° N
Cosmos 1980 3.6 00:32:48 10° NNW 00:38:32 84° WSW 00:39:24 65° S
Atlas Centaur 2 3.6 00:35:24 10° SSW 00:39:42 28° SSE 00:39:42 28° SSE
Cosmos 2227 Rocket 2.9 00:39:10 10° SW 00:44:38 51° WNW 00:46:28 37° NNW
Ariane Rocket 3.9 00:47:25 10° S 00:53:43 44° NW 00:57:22 10° NNW
Cosmos 2237 Rocket 4.3 01:36:28 10° NW 01:39:55 23° W 01:39:55 23° W
CZ-3 R/B 4.1 08:26:11 56° SSW 08:29:30 60° S 08:40:02 10° E
USA 215 4.4 09:19:04 10° E 09:24:49 34° NNE 09:26:03 32° NNE
Cosmos 2297 Rocket 3.4 09:29:07 34° NE 09:30:07 37° ENE 09:35:20 10° SE
Centaur D-1A AC-32 4.3 09:40:09 19° SSE 09:40:09 19° SSE 09:41:49 10° ESE
CZ-3B R/B 3.3 09:41:31 20° SE 09:41:31 20° SE 09:43:37 10° ESE
Cosmos 2227 Rocket 3.2 09:40:07 33° NNE 09:41:50 42° ENE 09:47:09 10° SE
Cosmos 1932 4.4 09:49:24 76° SSW 09:49:24 76° SSW 09:55:35 10° SSE
Cosmos 2369 3.8 09:55:20 21° S 09:59:16 74° ESE 10:05:00 10° NNE
Cosmos 1758 4.4 09:56:10 10° SSE 09:59:59 44° E 10:03:48 10° NNE
Cosmos 1626 3.3 10:04:33 40° ENE 10:04:39 40° E 10:08:09 10° SSE
Cosmos 1953 4.3 10:04:40 10° SSE 10:08:10 29° E 10:11:40 10° NNE
OAO 3 Copernicus 4.2 10:08:29 75° SSW 10:08:31 75° S 10:13:33 10° ESE
NOSS 2-2 (D) 4.1 10:12:36 42° NE 10:12:36 42° NE 10:15:13 10° NE
Nadezhda 1 Rocket 4.0 10:06:23 10° S 10:12:28 80° E 10:18:33 10° N
Cosmos 1602 Rocket 4.2 10:13:22 18° N 10:16:27 53° E 10:20:40 10° SSE
STARLINK-61 4.1 10:17:34 47° S 10:18:14 54° SE 10:22:06 10° NE
Cosmos 44 3.2 10:19:13 59° SSW 10:19:13 59° SSW 10:23:13 10° SSE
SKYMED 2 3.9 10:14:33 10° SSE 10:18:50 64° ENE 10:21:30 22° N
METEOR-M 4.3 10:14:03 10° NNE 10:19:24 72° ESE 10:24:43 10° S
BREEZE M DEB (TANK) 4.1 10:20:53 23° NE 10:20:53 23° NE 10:22:24 10° NE
Cosmos 1242 Rocket 4.1 10:21:59 26° S 10:21:59 26° S 10:23:41 10° S
Cosmos 2344 3.4 10:15:22 25° SW 10:20:07 65° NW 10:27:53 10° NNE
MOS 1-B 4.4 10:16:35 10° NNE 10:22:23 79° ESE 10:28:11 10° S
CZ-4B R/B 4.4 10:17:30 10° NNE 10:22:46 43° E 10:27:55 10° S
SJ-12 3.7 10:20:06 10° N 10:24:10 87° WNW 10:28:14 10° SSW
STARLINK-26 3.8 10:26:08 50° NNE 10:26:08 50° NNE 10:28:50 10° NE
SEDSat Delta rocket 3.9 10:24:09 37° SW 10:26:17 58° S 10:31:31 10° E
Cosmos 1980 Rocket 2.6 10:21:23 10° S 10:27:00 64° ESE 10:32:37 10° NNE
Okean O Rocket 2.7 10:23:07 10° NNE 10:27:25 46° E 10:31:39 10° S
Iridium 2 3.5 10:24:56 10° S 10:28:43 78° W 10:28:46 78° WNW
Meteor 1-24 Rocket 3.8 10:26:54 33° NW 10:29:12 54° W 10:34:55 10° S
STARLINK-55 4.5 10:27:18 22° S 10:29:13 41° SE 10:32:40 10° ENE
Meteor 2-5 Rocket 4.4 10:31:15 35° WSW 10:31:15 35° WSW 10:35:51 10° SSW
STARLINK-75 4.2 10:33:06 19° SSW 10:35:41 52° SE 10:39:29 10° NE
Cosmos 1697 Rocket 2.7 10:31:37 14° SW 10:36:15 54° WNW 10:41:46 10° NNE
Cosmos 2184 Rocket 4.0 10:31:38 10° NNW 10:37:40 56° W 10:43:44 10° SSW
STARLINK-62 4.4 10:34:22 13° SSW 10:37:43 49° SE 10:41:37 10° NE
FENGYUN 3A 3.5 10:34:27 10° N 10:39:51 74° WNW 10:45:14 10° SSW
Cosmos 1626 Rocket 3.5 10:38:35 34° NNW 10:40:16 58° W 10:44:32 10° S
Cosmos 1470 4.3 10:37:29 10° SSW 10:44:00 18° NNW 10:45:08 10° N
USA 116 4.4 10:39:52 10° SSE 10:44:56 74° ENE 10:49:35 10° N
Cosmos 2154 Rocket 3.9 10:39:09 10° N 10:45:22 80° W 10:51:32 10° S
STARLINK-28 3.4 10:43:48 23° SSW 10:45:51 70° SE 10:49:22 10° NE
STARLINK-41 4.1 10:42:34 11° SSW 10:46:14 56° SE 10:50:04 10° NE
NOSS 2-2 (C) 3.6 10:50:12 37° NW 10:50:12 37° NW 10:53:39 10° NNE
Helios 1A Rocket 3.3 10:46:39 10° NNE 10:50:45 65° ESE 10:54:50 10° S
FALCON 9 DEB 3.6 10:52:40 26° SE 10:52:50 27° SE 10:54:29 10° ENE
Cosmos 2219 4.1 10:53:51 25° W 10:54:45 26° WSW 10:59:24 10° SSW
STARLINK 3.9 10:51:22 10° SW 10:55:12 63° SE 10:59:03 10° NE
STARLINK-34 3.6 10:55:10 10° SW 10:59:10 82° SE 11:03:12 10° NE
NOSS 3-4 (A) 4.2 10:54:06 10° S 10:59:50 53° ESE 11:05:46 10° NE
Cosmos 1825 Rocket 4.1 10:55:36 10° N 10:59:52 60° E 11:04:09 10° SSE
NOSS 3-4 (C) 4.2 10:54:14 10° S 10:59:56 52° ESE 11:05:52 10° NE
Cosmos 2082 3.7 10:54:46 11° NNW 11:00:14 69° WSW 11:05:53 10° S
CZ-4B DEB 4.3 10:55:08 10° N 11:00:30 51° WNW 11:05:49 10° SSW
STARLINK-24 3.5 10:57:29 10° SW 11:01:30 85° SE 11:05:32 10° NE
NOSS 2-2 (E) 4.4 11:01:47 23° NW 11:01:47 23° NW 11:04:38 10° N
STARLINK-81 3.6 10:58:13 10° SW 11:02:13 79° SE 11:06:15 10° NE
STARLINK-54 3.5 11:00:01 10° SW 11:04:02 90° NE 11:08:04 10° NE
BREEZE-M DEB (TANK) 4.2 11:02:51 17° NW 11:04:51 23° N 11:11:36 10° NE
STARLINK-77 3.5 11:01:30 10° SW 11:05:31 85° SE 11:09:32 10° NE
COSMO-SKYMED 1 3.3 11:03:05 10° SSW 11:06:59 33° W 11:10:10 14° NW
STARLINK-25 3.5 11:03:10 10° SW 11:07:11 88° SE 11:11:13 10° NE
USA 215 3.3 11:00:59 10° SE 11:07:28 68° SW 11:13:25 13° NW
SL-14 R/B 4.4 11:07:33 22° W 11:07:40 22° W 11:10:41 10° SW
STARLINK-71 3.4 11:05:02 10° SW 11:09:02 79° NW 11:13:04 10° NE
STARLINK-79 3.4 11:06:27 10° SW 11:10:28 86° NW 11:14:30 10° NE
ALOS 3.0 11:07:17 10° NNW 11:11:18 29° WNW 11:15:18 10° SW
STARLINK-78 3.4 11:08:09 10° SW 11:12:10 82° NW 11:16:12 10° NE
Cosmos 1606 Rocket 3.5 11:08:42 10° SSW 11:13:07 71° W 11:17:34 10° N
STARLINK-57 3.4 11:09:54 10° SW 11:13:54 75° NW 11:17:56 10° NE
Cosmos 2297 Rocket 3.2 11:10:59 17° WNW 11:13:55 26° WSW 11:18:29 10° SSW
Cosmos 2322 Rocket 3.9 11:08:53 10° S 11:14:00 37° ESE 11:19:10 10° NE
STARLINK-49 3.4 11:11:26 10° SW 11:15:26 76° NW 11:19:28 10° NE
Cosmos 1726 Rocket 3.5 11:11:57 10° S 11:16:23 83° W 11:20:51 10° N
SL-4 R/B 4.1 11:14:41 10° N 11:16:36 14° NNE 11:18:28 10° ENE
STARLINK-27 3.4 11:13:05 10° SW 11:17:06 74° NW 11:21:07 10° NE
CZ-3B R/B 3.1 11:15:01 10° WSW 11:18:22 20° SSW 11:22:03 10° SE
STARLINK-74 3.4 11:14:44 10° SW 11:18:44 71° NW 11:22:46 10° NE
STARLINK-39 3.5 11:16:25 10° SW 11:20:24 68° NW 11:24:25 10° NE
STARLINK 3.5 11:18:04 10° SW 11:22:03 65° NW 11:26:04 10° NE
STARLINK-69 3.6 11:19:55 10° WSW 11:23:53 57° NW 11:27:51 10° NE
STARLINK-21 3.6 11:21:27 10° WSW 11:25:25 60° NW 11:29:25 10° NE
Cosmos 2227 Rocket 3.3 11:22:00 13° WNW 11:25:32 22° W 11:29:47 10° SSW
Cosmos 923 Rocket 3.9 11:20:53 10° SSW 11:26:05 72° WNW 11:31:23 10° NNE
COSMOS 2455 3.1 11:20:42 10° SW 11:26:28 48° WNW 11:32:17 10° NNE
STARLINK-45 3.7 11:23:23 10° WSW 11:27:17 51° NW 11:31:14 10° NE
STARLINK-70 3.7 11:24:50 10° WSW 11:28:45 52° NW 11:32:41 10° NE
IRS-1C Rocket 4.4 11:24:28 10° NNE 11:29:46 76° ESE 11:35:01 10° S
STARLINK-76 3.7 11:26:26 10° WSW 11:30:22 53° NW 11:34:20 10° NE
CZ-4 R/B 4.5 11:27:43 10° NE 11:30:54 21° E 11:34:03 10° SE
STARLINK 3.7 11:28:08 10° WSW 11:32:03 51° NW 11:35:59 10° NE
STARLINK-32 3.7 11:29:45 10° WSW 11:33:40 50° NW 11:37:35 10° NE
ATLAS 2AS CENTAUR R/B 3.1 11:26:46 10° SW 11:34:36 70° WNW 11:42:38 10° NNE
STARLINK-40 3.8 11:31:28 10° WSW 11:35:21 48° NW 11:39:16 10° NE
Cosmos 2263 Rocket 3.4 11:30:16 10° N 11:35:39 44° ENE 11:41:01 10° SE
Cosmos 2181 Rocket 4.1 11:30:05 10° SSW 11:36:06 56° W 11:42:14 10° N
CENTAUR R/B 4.1 11:28:21 10° NNW 11:36:14 48° NE 11:44:36 10° SE
STARLINK-44 3.8 11:33:08 10° WSW 11:37:00 46° NW 11:40:54 10° NE
Cosmos 972 Rocket 4.3 11:31:52 10° NNW 11:38:07 73° WSW 11:43:37 10° S
STARLINK-37 4.0 11:34:58 10° WSW 11:38:48 42° NW 11:42:39 10° NNE
H-2A R/B 2.9 11:35:09 10° N 11:38:58 53° WNW 11:42:44 10° SSW
USA 32 4.2 11:34:37 10° NNW 11:39:42 53° W 11:44:46 10° SSW
ADEOS Rocket 2.7 11:34:25 10° S 11:39:57 77° WSW 11:45:28 10° NNW
STARLINK-36 3.9 11:36:29 10° WSW 11:40:20 43° NW 11:44:11 10° NNE
STARLINK-68 4.1 11:38:26 10° WSW 11:42:11 38° NW 11:45:58 10° NNE
STARLINK-63 4.1 11:39:59 10° WSW 11:43:45 38° NW 11:47:32 10° NNE
Cosmos 1953 3.9 11:42:04 10° WSW 11:44:35 16° WNW 11:47:06 10° NW
STARLINK-35 4.1 11:41:32 10° WSW 11:45:19 39° NW 11:49:07 10° NNE
Cosmos 2341 Rocket 4.3 11:39:37 10° NNW 11:45:30 44° W 11:51:20 10° SSW
STARLINK-51 4.1 11:43:12 10° WSW 11:46:57 38° NW 11:50:44 10° NNE
Cosmos 1908 3.4 11:43:12 10° SSW 11:47:00 50° W 11:50:49 10° N
YAOGAN 6 3.3 11:44:11 10° NNE 11:47:42 59° E 11:51:09 10° S
STARLINK-42 4.2 11:44:46 10° WSW 11:48:17 33° NW 11:51:47 10° NNE
STARLINK-30 4.2 11:44:54 10° WSW 11:48:38 36° NW 11:52:23 10° NNE
STARLINK-64 4.1 11:45:08 10° WSW 11:48:39 34° NW 11:52:11 10° NNE
USA 238 DEB 3.9 11:42:15 10° NW 11:49:32 77° WSW 11:56:59 10° SSE
USA 238 3.9 11:42:22 10° NW 11:49:38 78° WSW 11:57:06 10° SSE
STARLINK-72 4.2 11:46:35 10° WSW 11:50:18 35° NW 11:54:01 10° NNE
SL-16 R/B 2.2 11:44:46 10° SSW 11:50:27 86° WNW 11:56:08 10° NNE
